This is the latest recevied weather packets stored in our database for station/object DO6MJ-1. If no packets are shown the sender has not sent any weather packets the latest 10 day(s).
| Time | Temp. | Humidity | Pressure | Rain* | Wind** | Luminosity | Snow |
|---|---|---|---|---|---|---|---|
| 1787850303 | 27.78° C | 49% | 1004.8 hPa | 0 mm | - | - | - |
| 1787849102 | 28.33° C | 47% | 1005.2 hPa | 0 mm | - | - | - |
| 1787847902 | 28.33° C | 47% | 1005.6 hPa | 0 mm | - | - | - |
| 1787846702 | 28.33° C | 47% | 1005.7 hPa | 0 mm | - | - | - |
| 1787845501 | 28.33° C | 46% | 1005.5 hPa | 0 mm | - | - | - |
| 1787844301 | 29.44° C | 46% | 1005.8 hPa | 0 mm | - | - | - |
| 1787843101 | 28.89° C | 46% | 1005.9 hPa | 0 mm | - | - | - |
| 1787841901 | 28.89° C | 47% | 1005.9 hPa | 0 mm | - | - | - |
| 1787840700 | 29.44° C | 47% | 1006.2 hPa | 0 mm | - | - | - |
| 1787839500 | 29.44° C | 47% | 1005.8 hPa | 0 mm | - | - | - |
| 1787838300 | 28.89° C | 49% | 1006 hPa | 0 mm | - | - | - |
| 1787837099 | 28.33° C | 50% | 1006.4 hPa | 0 mm | - | - | - |
| 1787835899 | 28.33° C | 50% | 1006.5 hPa | 0 mm | - | - | - |
| 1787834699 | 28.33° C | 50% | 1006.9 hPa | 0 mm | - | - | - |
| 1787833498 | 27.78° C | 52% | 1007 hPa | 0 mm | - | - | - |
| 1787832298 | 27.22° C | 53% | 1007.2 hPa | 0 mm | - | - | - |
| 1787831098 | 26.67° C | 54% | 1007.4 hPa | 0 mm | - | - | - |
| 1787829898 | 26.11° C | 56% | 1007.3 hPa | 0 mm | - | - | - |
| 1787828697 | 26.11° C | 56% | 1007.7 hPa | 0 mm | - | - | - |
| 1787827497 | 25.56° C | 58% | 1008 hPa | 0 mm | - | - | - |
| 1787826297 | 24.44° C | 59% | 1008.1 hPa | 0 mm | - | - | - |
| 1787825096 | 23.89° C | 56% | 1008.4 hPa | 0 mm | - | - | - |
| 1787823896 | 23.33° C | 62% | 1008.8 hPa | 0 mm | - | - | - |
| 1787822696 | 22.22° C | 63% | 1009.1 hPa | 0 mm | - | - | - |
| 1787821496 | 21.67° C | 65% | 1009.2 hPa | 0 mm | - | - | - |
* Rain latest hour (hover to see other rain measurements)
** Current wind speed in m/s (hover to see current wind gust speed)